Wind_Speed
18 18 18 19 20 21 20 20 20 20 21 20 20 20 19 19 19 20 20 20 20 21 20 21 21 21 21 22 23 23 23 23 22 23 22 22 23 23 24 24 24 24 24
18 19 19 19 20 20 20 21 21 21 21 21 20 19 19 19 20 20 20 20 21 21 22 22 22 22 22 23 23 24 24 23 23 23 23 23 23 23 24 24 25 24 24
19 19 19 19 19 19 20 21 21 22 22 21 21 20 20 20 20 20 20 21 22 22 23 23 23 22 22 23 23 24 24 24 24 23 23 23 23 24 25 26 25 24 25
20 20 20 20 20 20 21 21 22 22 22 21 21 21 20 20 20 21 21 21 22 23 23 24 23 24 24 24 24 24 24 25 25 25 25 25 25 25 25 25 25 25 25
20 19 20 20 20 20 20 21 22 21 21 21 21 21 21 21 21 21 21 21 21 22 22 23 24 24 24 24 25 25 25 25 26 26 26 26 26 26 26 26 26 26 27
20 20 19 19 20 20 21 21 21 22 22 22 22 22 22 22 22 22 22 21 21 21 22 23 24 25 26 26 26 26 25 26 26 27 27 27 26 27 27 27 27 27 27
19 19 19 20 20 21 22 21 22 23 22 22 22 23 23 22 22 22 21 21 21 22 22 23 24 25 26 27 26 27 26 27 27 27 27 27 27 27 27 28 28 27 27
21 21 21 21 21 22 22 22 23 23 23 23 23 24 23 22 22 21 21 21 22 22 23 24 25 25 26 26 26 27 27 27 28 27 27 27 27 27 28 28 28 27 28
22 21 21 21 22 22 23 24 24 24 24 24 23 23 23 23 22 21 22 22 22 23 24 25 25 25 26 26 26 27 28 28 28 28 28 29 28 28 28 28 28 28 28
22 21 21 22 22 23 24 25 26 25 24 24 23 23 24 23 23 23 23 23 23 23 24 24 25 25 25 26 27 27 28 29 29 30 30 29 29 30 30 29 30 30 29
21 21 21 22 22 24 24 24 24 24 24 23 23 24 24 23 23 24 23 24 24 24 25 25 25 25 25 26 26 27 28 29 29 30 30 31 31 31 30 30 30 30 29
21 21 21 22 23 24 24 24 24 25 24 23 23 23 23 23 23 23 24 24 24 24 25 25 25 25 26 25 26 26 27 27 28 29 29 30 31 31 30 30 30 29 29
21 21 22 22 22 23 23 24 24 24 25 24 24 23 24 23 23 24 24 23 23 23 24 24 25 25 24 25 25 26 27 27 27 28 28 29 29 29 29 29 29 28 28
21 22 22 22 22 22 23 24 24 25 25 24 24 24 24 24 23 23 24 23 23 23 24 24 24 24 24 25 25 26 26 26 26 26 27 27 27 28 28 28 28 28 28
21 21 22 22 22 23 23 24 25 25 25 25 24 24 24 24 24 24 24 24 23 24 24 25 24 24 25 25 25 25 25 26 26 25 25 26 26 27 28 29 29 28 28
20 21 21 22 22 23 24 24 25 26 26 26 26 25 25 25 25 25 25 25 25 24 25 25 25 24 23 24 23 24 25 26 26 25 25 26 26 27 27 28 28 28 28
21 21 21 22 23 23 24 25 26 26 27 26 26 26 26 25 25 26 25 25 25 25 25 24 24 23 23 23 23 23 24 24 25 26 26 27 27 28 28 29 29 29 29
23 23 23 23 24 24 25 26 27 27 27 27 27 27 26 26 26 26 26 25 24 25 25 24 24 23 23 23 23 23 23 23 23 24 25 25 26 26 27 29 29 29 29
24 24 25 25 25 25 26 26 27 28 28 28 27 27 26 26 27 26 26 25 25 25 25 24 23 23 23 22 22 21 22 21 21 21 22 24 24 24 25 26 26 27 28
25 25 26 26 26 26 26 27 28 27 28 28 28 27 27 26 26 26 26 25 25 25 25 23 23 22 22 22 21 21 20 21 21 21 21 22 23 23 24 24 24 25 26
26 26 26 26 26 26 26 27 28 28 28 28 28 28 27 27 26 26 26 25 24 24 23 23 22 22 21 21 21 21 21 21 20 20 20 21 22 22 23 23 23 24 25
25 26 27 27 28 27 27 27 28 28 28 28 28 28 27 27 27 26 26 25 24 22 22 22 22 21 21 21 21 21 21 21 20 20 20 20 20 21 21 21 21 22 22
26 26 27 28 28 27 27 28 28 28 28 28 28 28 27 28 27 26 25 24 23 23 23 22 22 21 21 20 20 19 19 20 20 19 19 19 19 19 19 18 18 18 19
26 27 27 27 27 26 26 27 28 27 27 28 28 29 28 28 27 26 25 24 24 23 23 22 21 21 20 20 20 20 19 18 18 18 19 19 19 18 18 18 18 18 18
27 27 27 27 26 26 27 28 28 27 28 29 29 29 28 28 27 26 25 24 23 23 22 22 22 21 20 19 19 18 17 17 17 17 17 18 18 17 17 17 17 18 18
27 26 26 26 27 26 27 27 28 29 29 29 28 28 28 27 26 25 24 24 23 23 23 22 21 21 19 19 18 17 17 16 16 17 17 16 16 17 17 17 17 18 18
Wind_Direction
308 308 307 307 309 310 312 312 312 310 310 308 305 302 298 295 293 290 288 286 284 283 281 280 277 274 271 271 270 269 269 268 268 267 268 268 266 267 268 267 266 266 264
304 306 308 309 310 308 308 308 313 310 309 309 307 304 299 296 294 291 288 287 285 283 280 277 276 276 274 273 272 272 271 269 268 268 268 267 267 268 268 266 267 266 264
301 302 304 307 307 308 309 311 310 309 308 307 306 305 300 296 293 291 288 287 285 282 279 277 278 279 279 278 276 273 271 268 267 267 269 269 270 269 269 268 266 264 265
297 300 302 303 306 308 310 313 311 308 307 307 307 304 303 300 296 292 289 286 283 281 280 279 278 277 277 277 276 273 270 268 266 267 268 270 270 270 268 267 268 265 265
297 299 300 302 305 309 310 311 310 310 308 307 307 307 306 303 299 294 290 286 285 283 281 279 278 276 276 276 275 273 270 269 268 267 267 269 269 268 267 267 269 270 266
295 298 299 301 305 307 307 307 307 307 307 306 305 306 306 304 302 298 292 288 287 285 282 279 279 278 276 275 273 272 270 269 270 267 265 266 267 267 267 268 269 268 267
296 297 299 302 304 304 305 305 305 305 305 305 304 302 302 303 302 298 293 290 287 286 285 283 282 281 279 276 274 272 270 269 269 267 264 265 267 267 267 268 268 267 266
298 301 303 305 303 304 307 306 304 304 304 304 304 303 301 300 299 297 293 291 290 289 288 286 286 284 281 277 274 272 271 269 269 266 264 265 267 267 267 267 267 265 266
300 302 305 306 305 304 305 305 305 304 305 305 304 303 301 299 297 295 291 291 291 288 288 288 286 284 282 277 274 272 270 269 268 266 265 266 266 267 268 267 266 265 264
298 301 304 306 305 306 304 304 304 306 308 307 306 304 303 301 298 295 292 291 290 289 288 288 287 285 283 280 276 273 271 270 268 265 264 265 266 267 267 266 266 266 264
298 302 305 307 306 305 306 307 308 308 307 307 306 305 304 303 302 297 295 293 291 289 290 290 289 287 284 281 278 275 274 270 268 266 266 266 266 266 266 265 265 264 263
299 302 305 305 306 307 307 310 311 310 308 308 308 309 308 306 305 303 302 299 293 291 291 291 291 288 285 283 279 276 274 271 269 268 268 268 266 265 264 264 265 263 263
297 300 302 303 305 307 308 310 311 311 310 309 310 313 313 310 309 308 306 304 300 297 296 295 292 289 285 284 281 278 275 272 271 269 269 269 267 264 263 264 264 263 264
297 298 300 304 305 305 307 309 311 311 311 312 314 312 312 310 310 308 308 307 304 302 302 301 297 291 287 285 283 280 278 275 273 271 269 267 267 265 263 263 263 263 263
298 297 299 303 303 305 308 308 310 312 311 312 312 312 312 310 309 309 308 307 305 303 302 301 298 294 290 287 282 280 277 275 273 273 271 270 269 268 265 264 264 263 263
296 296 298 302 306 307 307 309 309 311 312 313 313 311 311 311 311 311 309 307 304 302 301 300 298 295 293 291 286 281 279 277 276 275 274 271 270 269 267 265 264 264 264
298 298 299 302 307 308 309 309 310 312 311 310 311 312 312 312 312 311 311 308 305 303 302 302 300 298 296 293 288 285 281 281 278 275 272 270 270 268 267 266 265 264 262
298 299 302 305 306 308 310 311 311 312 312 312 312 312 312 311 311 312 312 309 307 305 304 302 301 299 297 294 291 289 287 285 282 278 274 272 271 270 269 268 265 263 262
298 300 302 303 304 306 308 310 312 313 313 313 312 312 312 311 311 311 310 309 307 306 305 303 301 299 298 296 294 293 291 289 284 280 277 274 272 270 270 268 266 263 262
299 300 300 301 302 303 306 308 311 312 312 312 312 312 311 311 311 310 309 309 307 306 305 304 302 301 299 298 295 293 290 286 284 281 280 278 275 272 271 270 266 265 264
298 299 299 300 302 303 304 307 310 310 310 311 311 312 311 310 310 307 307 307 307 307 305 305 303 302 300 297 294 291 289 286 284 282 280 279 277 276 273 270 269 267 265
298 299 300 300 302 303 304 306 308 310 310 310 310 311 311 311 309 307 306 306 306 306 306 305 304 302 300 298 296 293 289 286 283 282 280 280 279 278 274 273 271 266 264
297 299 300 301 303 303 305 307 308 309 310 311 311 312 312 311 310 309 309 309 308 306 306 304 301 300 299 299 297 294 289 286 285 283 280 279 279 277 274 272 270 267 265
297 298 299 300 301 302 305 308 309 309 311 312 312 312 312 312 312 310 310 310 308 307 307 306 303 302 300 298 297 295 292 291 289 287 283 282 281 279 277 276 273 270 268
295 297 298 299 301 303 306 308 309 309 311 312 312 312 312 313 313 311 310 309 308 308 307 305 304 305 303 301 299 296 293 293 292 291 289 285 280 278 278 276 275 273 269
294 296 298 300 302 304 306 307 308 309 311 312 313 313 313 313 312 312 310 308 307 307 306 305 303 303 302 302 300 297 295 295 296 295 293 289 282 279 278 276 275 274 271
Height
5848 5846 5845 5843 5841 5839 5837 5834 5832 5830 5828 5826 5823 5821 5819 5818 5816 5815 5814 5813 5812 5812 5812 5811 5811 5811 5811 5811 5811 5812 5812 5813 5813 5814 5814 5815 5815 5816 5816 5816 5816 5817 5818
5845 5843 5841 5839 5837 5835 5833 5830 5828 5826 5824 5821 5818 5816 5814 5812 5811 5809 5808 5807 5806 5806 5805 5805 5805 5805 5805 5805 5805 5805 5806 5806 5806 5807 5807 5808 5809 5809 5809 5810 5810 5811 5811
5842 5840 5838 5836 5834 5831 5829 5827 5824 5822 5819 5816 5814 5811 5809 5807 5805 5803 5802 5801 5800 5799 5799 5798 5798 5799 5799 5799 5799 5799 5799 5799 5800 5800 5801 5801 5802 5803 5803 5803 5804 5804 5805
5838 5836 5834 5832 5830 5828 5825 5822 5820 5817 5814 5811 5809 5806 5803 5801 5799 5797 5796 5795 5794 5793 5792 5792 5792 5792 5792 5792 5792 5792 5792 5792 5793 5794 5794 5795 5795 5796 5796 5796 5797 5797 5798
5833 5832 5830 5828 5826 5823 5821 5818 5815 5812 5809 5806 5804 5801 5798 5796 5793 5792 5790 5789 5788 5787 5786 5785 5785 5785 5785 5785 5785 5785 5785 5785 5786 5786 5787 5787 5788 5788 5789 5790 5790 5790 5790
5829 5827 5826 5824 5821 5819 5816 5813 5810 5807 5804 5802 5799 5796 5794 5791 5788 5786 5785 5783 5782 5781 5780 5779 5779 5778 5778 5778 5778 5778 5778 5778 5778 5779 5779 5780 5780 5781 5782 5783 5783 5783 5783
5824 5823 5821 5819 5817 5814 5811 5809 5806 5802 5800 5797 5794 5791 5788 5785 5783 5781 5779 5778 5776 5775 5774 5773 5772 5771 5770 5770 5770 5770 5770 5771 5771 5771 5772 5772 5773 5773 5774 5774 5775 5775 5776
5820 5818 5817 5814 5812 5809 5806 5803 5800 5797 5795 5792 5789 5786 5783 5780 5778 5776 5774 5772 5771 5769 5768 5766 5765 5764 5763 5762 5762 5762 5763 5763 5763 5764 5764 5764 5765 5765 5766 5766 5767 5768 5769
5816 5814 5812 5810 5807 5805 5801 5798 5795 5792 5789 5786 5783 5780 5777 5775 5772 5770 5768 5766 5765 5763 5761 5759 5758 5756 5755 5754 5754 5754 5754 5755 5755 5755 5756 5756 5757 5757 5757 5757 5758 5760 5761
5811 5809 5807 5805 5802 5799 5796 5793 5790 5787 5784 5780 5777 5774 5771 5769 5766 5763 5761 5760 5758 5756 5754 5752 5750 5749 5747 5746 5746 5746 5746 5746 5746 5747 5747 5748 5748 5748 5748 5749 5750 5751 5752
5807 5805 5802 5800 5797 5794 5791 5788 5785 5782 5779 5775 5772 5769 5766 5762 5759 5757 5755 5753 5750 5749 5747 5745 5743 5741 5740 5739 5738 5737 5737 5737 5737 5738 5738 5738 5739 5739 5739 5740 5741 5742 5743
5802 5800 5797 5795 5792 5789 5786 5784 5781 5777 5774 5770 5767 5764 5760 5757 5754 5751 5749 5746 5744 5742 5740 5738 5736 5734 5732 5731 5730 5729 5729 5728 5729 5729 5729 5729 5730 5730 5730 5731 5732 5733 5734
5797 5795 5793 5791 5788 5785 5782 5779 5775 5772 5769 5765 5762 5759 5756 5753 5749 5746 5743 5740 5737 5735 5733 5731 5729 5727 5725 5724 5722 5721 5721 5720 5720 5720 5720 5721 5721 5721 5722 5722 5723 5724 5725
5793 5791 5788 5786 5783 5780 5777 5774 5770 5767 5764 5760 5757 5754 5751 5747 5744 5741 5738 5735 5732 5730 5727 5725 5722 5720 5717 5716 5715 5713 5713 5712 5712 5712 5712 5712 5712 5712 5713 5714 5715 5715 5716
5788 5786 5783 5781 5778 5775 5772 5769 5765 5762 5759 5756 5752 5749 5746 5742 5739 5735 5732 5729 5727 5724 5721 5718 5715 5712 5710 5709 5707 5706 5705 5704 5704 5704 5703 5703 5704 5704 5704 5705 5706 5707 5707
5783 5781 5779 5776 5773 5770 5767 5764 5760 5757 5754 5750 5747 5743 5740 5737 5733 5730 5727 5724 5721 5718 5714 5711 5708 5706 5703 5702 5700 5698 5697 5696 5696 5695 5695 5695 5695 5695 5695 5696 5697 5698 5699
5778 5776 5773 5771 5768 5765 5762 5759 5755 5752 5748 5744 5741 5738 5734 5731 5728 5724 5721 5717 5714 5711 5708 5705 5702 5699 5697 5695 5693 5691 5690 5689 5688 5687 5687 5686 5686 5686 5687 5687 5688 5689 5690
5773 5771 5768 5765 5762 5759 5756 5753 5750 5746 5742 5739 5735 5732 5729 5726 5722 5718 5715 5711 5708 5705 5702 5699 5696 5693 5691 5689 5686 5684 5683 5682 5680 5679 5679 5678 5678 5678 5678 5678 5679 5680 5681
5768 5765 5763 5760 5757 5754 5751 5748 5745 5741 5737 5734 5730 5727 5723 5720 5716 5712 5709 5706 5702 5699 5696 5693 5690 5687 5685 5682 5680 5678 5676 5675 5674 5673 5672 5671 5671 5670 5670 5670 5670 5671 5672
5762 5760 5757 5754 5752 5749 5746 5743 5739 5736 5732 5729 5725 5721 5718 5714 5710 5707 5703 5700 5696 5693 5690 5687 5684 5681 5678 5676 5674 5672 5670 5669 5668 5666 5665 5664 5663 5662 5662 5662 5662 5663 5663
5756 5753 5751 5748 5745 5743 5740 5737 5734 5730 5726 5723 5719 5716 5712 5708 5705 5701 5698 5694 5690 5687 5684 5681 5678 5675 5673 5670 5668 5666 5664 5662 5661 5660 5659 5657 5656 5655 5655 5654 5654 5654 5654
5750 5747 5744 5742 5739 5736 5733 5730 5727 5724 5720 5716 5713 5709 5706 5702 5698 5695 5692 5688 5684 5681 5678 5675 5672 5670 5667 5664 5662 5660 5657 5656 5655 5653 5652 5651 5650 5649 5648 5647 5647 5646 5646
5743 5741 5738 5735 5732 5730 5727 5724 5721 5717 5714 5710 5706 5703 5699 5695 5692 5688 5685 5682 5678 5675 5672 5670 5667 5664 5661 5659 5656 5654 5652 5650 5648 5647 5646 5644 5643 5642 5641 5640 5640 5640 5640
5736 5734 5731 5729 5726 5724 5721 5717 5714 5711 5707 5704 5700 5696 5693 5689 5685 5682 5678 5675 5672 5669 5667 5664 5661 5658 5656 5653 5651 5648 5647 5645 5643 5641 5640 5638 5637 5636 5635 5634 5634 5634 5635
5730 5727 5725 5722 5720 5717 5714 5711 5708 5704 5701 5698 5694 5690 5686 5682 5679 5675 5672 5669 5666 5663 5661 5658 5656 5653 5650 5648 5645 5643 5641 5640 5638 5636 5634 5633 5632 5631 5630 5629 5629 5629 5629
5723 5720 5718 5716 5713 5710 5707 5704 5701 5698 5695 5691 5687 5683 5680 5677 5673 5670 5666 5663 5660 5658 5655 5652 5650 5647 5645 5643 5641 5639 5637 5635 5633 5631 5629 5627 5626 5625 5625 5624 5624 5624 5623